NUSAT-49(K.VON NEUMANN)

导读

NUSAT-49(K.VON NEUMANN)是阿根廷(AR)于2024年8月16日发射的小型卫星,隶属于新兴小卫星技术发展浪潮。该卫星延续了立方星低成本、快速部署的特点,顺应行业向更大体量、更智能处理方向演进的趋势,大概率搭载先进载荷,或开展对地观测、空间技术验证等任务,是阿根廷参与商业航天发展、探索微小卫星应用的最新实践。

基本信息
目录编号:
60500
目录名称:
NUSAT-49(K.VON NEUMANN)
国际标识:
2024-149AJ
轨道中心:
EARTH
卫星名称:
NUSAT-49(K.VON NEUMANN)
卫星全名:
NUSAT-49(K.VON NEUMANN)
卫星状态:
在轨 (已飞行749 天)
发射日期:
2024-08-16 UTC
国别 :
阿根廷 (AR)
星等 :
--
轨道信息
数据来源 国际轨道数据
星历时间: 2026-09-04T00:16:36+0800
19小时前
查看轨道信息
半长轴: 6853.569km
偏心率: 0.0003082
轨道倾角: 97.373°
近地点辐角 55.109°
升交点赤经 327.415°
平近点角 305.044°
近地点: 473.319km
远地点: 477.545km
周期: 94.110分钟
每日圈数: 15.301275
详细信息
使用方式:
暂无
2D轨道图
3D轨道图
轨道高度分析图
轨道倾角分析图
轨道综合分析图
查看轨道综合分析图